Flight Information

DEPARTURE
VAN NUYS, CA
Elevation:
802
Runways:
16R/34L - 8001x150 - ASPH-G
16L/34R - 4013x75 - ASPH-G
Active PE Departure:
16L - 16R
Current PE ATIS:
D
Altimeter:
30.09
Remarks:
ATIS:
127.55 818-780-4993
Clearance Delivery:
126.6
Ground:
121.7
Tower:
119.3 (162-345 and dep Rwy 16R-34L)
120.2 (346-161 and dep Rwy 16L-34R)
DESTINATION
,
Elevation:
TPA:
1000 (est.)


6793.7 NM73° True-14° Var59° HDG

Flight Plan:
(click to file on line)

1. Type
2. Aircraft Identification
3. Aircraft Type / Special Equipment
4. True Airspeed
kts
5. Departure Airport
(ICAO code)
6. Arriving Airport
(ICAO code)
7. Cruising Altitude
ft
8. Alternate Airport
(ICAO code)
9. Route of Flight
10. Remarks


00:00:00 Departure ATIS: Destination ATIS:

Clearance Limit:
Route:
Altitude: Expect in minutes
Frequency:
Transponder: (7500 Hijack / 7600 Lost Comms / 7700 Emergency)


KVNY 211751Z 12005KT 10SM CLR 33/08 A3009 RMK AO2 SLP177 T03280083 10328 20183 51005
Time: 2021-09-21T17:51:00Z
1632248832
Winds: 120 @ 5 kts
Visibility: 10.0 sm
Clouds (AGL): CLR
Temperature: 32.8 C
Dew Point: 8.3 C
Pressure: 30.088583 in Hgbr


Notes:

Data extracted from FAA Digital Chart Supplement. Effective: 0901Z Thursday, AUG 12, 2021 to 0901Z Thursday, OCT 7, 2021
Current ATIS data is provided courtisy of PilotEdge.